Maryland Science Center, MD

8:43 AM EST on December 08, 2019 (GMT -0500)
Maryland Science Center

Weather History for KDMH - October, 2019

Change the Weather History Date:

Tuesday, October 22, 2019

  Actual Average Record
Temperature  
Mean Temperature 60 °F 58 °F  
Max Temperature 63 °F 66 °F 84 °F (2007)
Min Temperature 57 °F 50 °F 39 °F (2018)
Degree Days  
Heating Degree Days 5 8  
Month to date heating degree days 70 111  
Since 1 July heating degree days 70 129  
Cooling Degree Days 0 1  
Month to date cooling degree days 57 37  
Year to date cooling degree days 2046 1662  
Growing Degree Days 12 (Base 50)    
Moisture  
Dew Point 58 °F    
Average Humidity 91    
Maximum Humidity 97    
Minimum Humidity 84    
Precipitation  
Precipitation 0.67 in 0.09 in 0.94 in (2014)
Month to date precipitation 3.36 2.29  
Year to date precipitation 34.23 33.75  
Sea Level Pressure  
Sea Level Pressure 29.93 in    
Wind  
Wind Speed - (North)    
Max Wind Speed -    
Max Gust Speed -    
T = Trace of Precipitation, MM = Missing Value Source: NWS Daily Summary

Daily Weather History Graph

Daily Weather History Graph

Search for Another Location

Airport or City:

Astronomy

Oct. 22, 2019 Rise Set
Actual Time 7:23 AM EDT 6:18 PM EDT
Civil Twilight 6:55 AM EDT 6:45 PM EDT
Nautical Twilight 6:24 AM EDT 7:16 PM EDT
Astronomical Twilight 5:53 AM EDT 7:47 PM EDT
Moon 12:33 AM EDT (10/22) 3:22 PM EDT (10/22)
Length of Visible Light 11h 49m
Length of Day
10h 54m
Last Quarter, 37% of the Moon is Illuminated
Oct 22
Last Quarter
Oct 27
New
Nov 4
First Quarter
Nov 12
Full
Nov 19
Last Quarter

Hourly Weather History & Observations

Time (EDT) Temp. Dew Point Humidity Pressure Visibility Wind Dir Wind Speed Gust Speed Precip Events Conditions
12:54 AM 61.0 °F 55.0 °F 81% 30.07 in - North - - N/A   Unknown
1:54 AM 61.0 °F 55.9 °F 83% 30.08 in - North - - N/A   Unknown
2:54 AM 61.0 °F 55.9 °F 83% 30.06 in - North - - N/A   Unknown
3:54 AM 61.0 °F 55.0 °F 81% 30.04 in - North - - N/A   Unknown
6:54 AM 60.1 °F 57.9 °F 93% 30.01 in - North - - N/A   Unknown
8:54 AM 60.1 °F 59.0 °F 96% 30.01 in - North - - 0.01 in   Unknown
9:54 AM 60.1 °F 59.0 °F 96% 29.99 in - North - - 0.01 in   Unknown
10:54 AM 61.0 °F 59.0 °F 93% 29.97 in - North - - 0.01 in   Unknown
11:54 AM 61.0 °F 59.0 °F 93% 29.95 in - North - - 0.01 in   Unknown
12:54 PM 62.1 °F 60.1 °F 93% 29.91 in - North - - N/A   Unknown
1:54 PM 62.1 °F 60.1 °F 93% 29.87 in - North - - N/A   Unknown
2:54 PM 62.1 °F 60.1 °F 93% 29.83 in - North - - N/A   Unknown
3:54 PM 62.1 °F 61.0 °F 96% 29.85 in - North - - 0.11 in   Unknown
4:54 PM 63.0 °F 61.0 °F 93% 29.81 in - North - - 0.27 in   Unknown
5:54 PM 62.1 °F 60.1 °F 93% 29.83 in - North - - 0.23 in   Unknown
6:54 PM 61.0 °F 59.0 °F 93% 29.83 in - North - - 0.02 in   Unknown
8:54 PM 61.0 °F 59.0 °F 93% 29.83 in - North - - N/A   Unknown
9:54 PM 61.0 °F 57.0 °F 87% 29.85 in - North - - N/A   Unknown
10:54 PM 60.1 °F 57.0 °F 90% 29.86 in - North - - N/A   Unknown
11:54 PM 59.0 °F 57.0 °F 93% 29.85 in - North - - N/A   Unknown